Madison, WI

11:45 PM CDT on August 30, 2016 (GMT -0500)
Dane County Regional-Truax

Weather History for KMSN - July, 2012

Change the Weather History Date:

Thursday, July 5, 2012

  Actual Average Record
Temperature  
Mean Temperature 90 °F 71 °F  
Max Temperature 104 °F 82 °F 104 °F (2012)
Min Temperature 75 °F 61 °F 40 °F (1972)
Degree Days  
Heating Degree Days 0 0  
Month to date heating degree days 0 0  
Since 1 June heating degree days 22 60  
Since 1 July heating degree days 0 0  
Cooling Degree Days 25 7  
Month to date cooling degree days 107 33  
Year to date cooling degree days 443 183  
Since 1 June cooling degree days 335 153  
Growing Degree Days 40 (Base 50)    
Moisture  
Dew Point 69 °F    
Average Humidity 53    
Maximum Humidity 76    
Minimum Humidity 29    
Precipitation  
Precipitation 0.00 in 0.14 in 3.75 in (1993)
Month to date precipitation T 0.69  
Year to date precipitation 11.39 17.06  
Snow  
Snow 0.00 in 0.00 in 0.00 in ()
Month to date snowfall 0.0 0.0  
Since 1 June snowfall 0.0 0.0  
Since 1 July snowfall 0.0 0.0  
Snow Depth 0.00 in    
Sea Level Pressure  
Sea Level Pressure 29.87 in    
Wind  
Wind Speed 4 mph (WSW)    
Max Wind Speed 12 mph    
Max Gust Speed 16 mph    
Visibility 10 miles    
Events      
T = Trace of Precipitation, MM = Missing Value Source: NWS Daily Summary

Daily Weather History Graph

Daily Weather History Graph

Search for Another Location

Airport or City:

Trip Planner

Search our weather history database for the weather conditions in past years. The results will help you decide how hot, cold, wet, or windy it might be!

Date:

Astronomy

Jul. 05, 2012 Rise Set
Actual Time 5:24 AM CDT 8:39 PM CDT
Civil Twilight 4:49 AM CDT 9:14 PM CDT
Nautical Twilight 4:03 AM CDT 9:59 PM CDT
Astronomical Twilight 3:08 AM CDT 10:54 PM CDT
Moon 9:50 PM CDT (7/5) 7:40 AM CDT (7/5)
Length of Visible Light 16h 25m
Length of Day
15h 15m
Waning Gibbous, 95% of the Moon is Illuminated
Jul 5
Waning Gibbous
Jul 10
Last Quarter
Jul 18
New
Jul 26
First Quarter
Aug 1
Full

Hourly Weather History & Observations

Time (CDT) Temp. Heat Index Dew Point Humidity Pressure Visibility Wind Dir Wind Speed Gust Speed Precip Events Conditions
12:53 AM 84.9 °F 90.1 °F 71.1 °F 63% 29.86 in 10.0 mi SW 4.6 mph - N/A   Clear
1:53 AM 84.0 °F 89.0 °F 71.1 °F 65% 29.85 in 10.0 mi SW 4.6 mph - N/A   Clear
2:53 AM 82.9 °F 87.5 °F 71.1 °F 67% 29.87 in 10.0 mi SW 3.5 mph - N/A   Clear
3:53 AM 78.1 °F - 70.0 °F 76% 29.88 in 10.0 mi NNE 5.8 mph - N/A   Clear
4:53 AM 79.0 °F - 70.0 °F 74% 29.87 in 10.0 mi Calm Calm - N/A   Clear
5:53 AM 77.0 °F - 70.0 °F 79% 29.88 in 10.0 mi Calm Calm - N/A   Scattered Clouds
6:53 AM 81.0 °F 84.9 °F 71.1 °F 72% 29.89 in 10.0 mi South 5.8 mph - N/A   Partly Cloudy
7:53 AM 84.9 °F 89.4 °F 70.0 °F 61% 29.89 in 10.0 mi South 5.8 mph - N/A   Clear
8:53 AM 88.0 °F 92.9 °F 70.0 °F 55% 29.89 in 10.0 mi SW 5.8 mph - N/A   Partly Cloudy
9:53 AM 91.0 °F 95.2 °F 68.0 °F 47% 29.88 in 10.0 mi SW 5.8 mph - N/A   Partly Cloudy
10:53 AM 93.9 °F 98.6 °F 68.0 °F 43% 29.88 in 10.0 mi SW 5.8 mph - N/A   Scattered Clouds
11:53 AM 97.0 °F 102.2 °F 68.0 °F 39% 29.89 in 10.0 mi WNW 5.8 mph - N/A   Clear
12:53 PM 99.0 °F 103.5 °F 66.9 °F 35% 29.88 in 10.0 mi Variable 6.9 mph - N/A   Clear
1:53 PM 100.0 °F 103.6 °F 64.9 °F 32% 29.86 in 10.0 mi WNW 5.8 mph - N/A   Partly Cloudy
2:53 PM 102.0 °F 105.9 °F 64.9 °F 30% 29.85 in 10.0 mi Variable 4.6 mph - N/A   Scattered Clouds
3:53 PM 102.9 °F 107.6 °F 66.0 °F 30% 29.84 in 10.0 mi Variable 4.6 mph - N/A   Partly Cloudy
4:53 PM 100.9 °F 106.0 °F 66.9 °F 33% 29.84 in 10.0 mi WNW 9.2 mph - N/A   Partly Cloudy
5:53 PM 100.0 °F 107.0 °F 69.1 °F 37% 29.84 in 10.0 mi WNW 5.8 mph 16.1 mph N/A   Partly Cloudy
6:53 PM 98.1 °F 102.4 °F 66.9 °F 36% 29.85 in 10.0 mi Variable 6.9 mph - N/A   Partly Cloudy
7:53 PM 96.1 °F 101.6 °F 69.1 °F 41% 29.86 in 10.0 mi Calm Calm - N/A   Partly Cloudy
8:53 PM 91.9 °F 97.4 °F 70.0 °F 48% 29.86 in 10.0 mi WNW 3.5 mph - N/A   Partly Cloudy
9:53 PM 90.0 °F 96.4 °F 71.1 °F 54% 29.89 in 10.0 mi Calm Calm - N/A   Clear
10:53 PM 88.0 °F 94.7 °F 72.0 °F 59% 29.90 in 10.0 mi Calm Calm - N/A   Clear
11:53 PM 86.0 °F 92.2 °F 72.0 °F 63% 29.91 in 10.0 mi WNW 4.6 mph - N/A   Clear